Black River Falls, WI

8:56 PM CDT on April 25, 2017 (GMT -0500)
Black River Falls Area

Weather History for KBCK - May, 2013

Change the Weather History Date:

Tuesday, May 14, 2013

  Actual Average (KCMY) Record (KCMY)
Temperature  
Mean Temperature 70 °F -  
Max Temperature 93 °F 67 °F 91 °F (2013)
Min Temperature 46 °F 42 °F 28 °F (1973)
Cooling Degree Days 4    
Growing Degree Days 20 (Base 50)    
Moisture  
Dew Point 44 °F    
Average Humidity 41    
Maximum Humidity 83    
Minimum Humidity 15    
Precipitation  
Precipitation 0.00 in - - ()
Sea Level Pressure  
Sea Level Pressure 29.63 in    
Wind  
Wind Speed 5 mph (SSW)    
Max Wind Speed 15 mph    
Max Gust Speed 24 mph    
Visibility 10 miles    
Events      
Averages and records for this station are not official NWS values.
T = Trace of Precipitation, MM = Missing Value Source: NWS Daily Summary

Daily Weather History Graph

Daily Weather History Graph

Search for Another Location

Airport or City:

Trip Planner

Search our weather history database for the weather conditions in past years. The results will help you decide how hot, cold, wet, or windy it might be!

Date:

Astronomy

May. 14, 2013 Rise Set
Actual Time 5:37 AM CDT 8:22 PM CDT
Civil Twilight 5:03 AM CDT 8:56 PM CDT
Nautical Twilight 4:21 AM CDT 9:38 PM CDT
Astronomical Twilight 3:32 AM CDT 10:28 PM CDT
Moon 9:17 AM CDT (5/14) No Moon Set
Length of Visible Light 15h 52m
Length of Day
14h 45m
Waxing Crescent, 19% of the Moon is Illuminated
May 14
Waxing Crescent
May 17
First Quarter
May 24
Full
May 31
Last Quarter
Jun 8
New

Hourly Weather History & Observations

Time (CDT) Temp. Windchill Dew Point Humidity Pressure Visibility Wind Dir Wind Speed Gust Speed Precip Events Conditions
12:15 AM 58.5 °F - 36.5 °F 44% 29.76 in 10.0 mi South 5.8 mph - N/A   Clear
12:35 AM 58.5 °F - 37.2 °F 45% 29.75 in 10.0 mi South 5.8 mph - N/A   Mostly Cloudy
12:55 AM 58.6 °F - 37.8 °F 46% 29.74 in 10.0 mi South 5.8 mph - N/A   Mostly Cloudy
1:15 AM 58.5 °F - 38.5 °F 47% 29.73 in 10.0 mi South 3.5 mph - N/A   Mostly Cloudy
1:35 AM 57.9 °F - 39.0 °F 49% 29.72 in 10.0 mi South 3.5 mph - N/A   Scattered Clouds
1:55 AM 57.2 °F - 39.4 °F 51% 29.71 in 10.0 mi South 3.5 mph - N/A   Clear
2:15 AM 57.2 °F - 40.1 °F 53% 29.71 in 10.0 mi South 3.5 mph - N/A   Clear
2:35 AM 56.8 °F - 40.5 °F 54% 29.70 in 10.0 mi South 4.6 mph - N/A   Clear
2:55 AM 57.2 °F - 41.4 °F 55% 29.69 in 10.0 mi SSW 4.6 mph - N/A   Clear
3:15 AM 57.4 °F - 42.3 °F 57% 29.68 in 10.0 mi SSW 5.8 mph - N/A   Clear
3:35 AM 57.4 °F - 42.8 °F 58% 29.68 in 10.0 mi SSW 4.6 mph - N/A   Clear
3:55 AM 56.8 °F - 43.0 °F 60% 29.69 in 10.0 mi SSW 4.6 mph - N/A   Clear
4:15 AM 56.7 °F - 43.3 °F 61% 29.69 in 10.0 mi SSW 4.6 mph - N/A   Clear
4:35 AM 55.6 °F - 43.7 °F 64% 29.68 in 10.0 mi SSW 3.5 mph - N/A   Clear
4:55 AM 50.7 °F - 43.0 °F 75% 29.68 in 10.0 mi South 3.5 mph - N/A   Clear
5:15 AM 50.5 °F - 43.5 °F 77% 29.68 in 10.0 mi SSW 3.5 mph - N/A   Clear
5:35 AM 52.5 °F - 44.4 °F 74% 29.69 in 10.0 mi SSW 3.5 mph - N/A   Clear
5:55 AM 47.3 °F - 41.7 °F 81% 29.68 in 10.0 mi South 3.5 mph - N/A   Clear
6:15 AM 46.2 °F 45.0 °F 41.4 °F 83% 29.69 in 10.0 mi SW 3.5 mph - N/A   Clear
6:35 AM 50.4 °F - 44.1 °F 79% 29.69 in 10.0 mi SSW 3.5 mph - N/A   Clear
6:55 AM 56.8 °F - 46.6 °F 69% 29.69 in 10.0 mi SSW 4.6 mph - N/A   Clear
7:15 AM 59.0 °F - 47.3 °F 65% 29.69 in 10.0 mi SSW 3.5 mph - N/A   Clear
7:35 AM 60.8 °F - 47.3 °F 61% 29.69 in 10.0 mi South 3.5 mph - N/A   Clear
7:55 AM 62.4 °F - 47.3 °F 58% 29.69 in 10.0 mi Calm Calm - N/A   Clear
8:15 AM 64.0 °F - 47.5 °F 55% 29.70 in 10.0 mi SW 3.5 mph - N/A   Clear
8:35 AM 65.8 °F - 47.8 °F 52% 29.69 in 10.0 mi SSW 3.5 mph - N/A   Clear
8:55 AM 67.3 °F - 47.8 °F 50% 29.70 in 10.0 mi SSW 4.6 mph - N/A   Clear
9:15 AM 68.9 °F - 48.0 °F 47% 29.70 in 10.0 mi Calm Calm - N/A   Clear
9:35 AM 70.2 °F - 48.2 °F 46% 29.71 in 10.0 mi Calm Calm - N/A   Clear
9:55 AM 72.1 °F - 48.2 °F 43% 29.71 in 10.0 mi Calm Calm - N/A   Clear
10:15 AM 74.5 °F - 46.6 °F 37% 29.71 in 10.0 mi NE 4.6 mph - N/A   Clear
10:35 AM 76.1 °F - 44.6 °F 33% 29.71 in 10.0 mi Calm Calm - N/A   Clear
10:55 AM 78.8 °F - 43.2 °F 28% 29.70 in 10.0 mi South 3.5 mph - N/A   Clear
11:15 AM 81.0 °F - 42.6 °F 26% 29.70 in 10.0 mi SSW 3.5 mph - N/A   Clear
11:35 AM 82.4 °F - 37.9 °F 20% 29.71 in 10.0 mi WNW 3.5 mph - N/A   Clear
11:55 AM 81.5 °F - 42.3 °F 25% 29.74 in 10.0 mi WNW 5.8 mph - N/A   Clear
12:15 PM 80.2 °F - 40.6 °F 24% 29.75 in 10.0 mi Calm Calm - N/A   Scattered Clouds
12:35 PM 80.6 °F - 43.5 °F 27% 29.76 in 10.0 mi NNW 5.8 mph - N/A   Scattered Clouds
12:55 PM 80.4 °F - 42.1 °F 26% 29.74 in 10.0 mi Calm Calm - N/A   Scattered Clouds
1:15 PM 82.6 °F - 44.2 °F 26% 29.73 in 10.0 mi Calm Calm - N/A   Clear
1:35 PM 82.6 °F - 42.4 °F 24% 29.68 in 10.0 mi East 5.8 mph - N/A   Clear
1:55 PM 83.3 °F - 43.3 °F 24% 29.66 in 10.0 mi South 6.9 mph - N/A   Clear
2:15 PM 85.3 °F - 37.4 °F 18% 29.63 in 10.0 mi SSE 8.1 mph - N/A   Clear
2:35 PM 88.2 °F - 40.1 °F 18% 29.60 in 10.0 mi SSE 12.7 mph 16.1 mph N/A   Clear
2:55 PM 90.0 °F - 38.5 °F 16% 29.59 in 10.0 mi SSE 12.7 mph 19.6 mph N/A   Clear
3:15 PM 90.0 °F - 36.9 °F 15% 29.58 in 10.0 mi SSE 12.7 mph 18.4 mph N/A   Clear
3:35 PM 90.7 °F - 38.3 °F 16% 29.56 in 10.0 mi South 12.7 mph 20.7 mph N/A   Clear
3:55 PM 91.6 °F - 39.2 °F 16% 29.56 in 10.0 mi South 13.8 mph 18.4 mph N/A   Clear
4:15 PM 90.3 °F - 36.9 °F 15% 29.56 in 10.0 mi South 10.4 mph 24.2 mph N/A   Clear
4:35 PM 90.9 °F - 37.8 °F 15% 29.54 in 10.0 mi South 11.5 mph 20.7 mph N/A   Clear
4:55 PM 93.2 °F - 39.6 °F 15% 29.53 in 10.0 mi South 11.5 mph 20.7 mph N/A   Clear
5:15 PM 93.4 °F - 41.4 °F 16% 29.52 in 10.0 mi South 15.0 mph 24.2 mph N/A   Clear
5:35 PM 91.8 °F - 41.9 °F 18% 29.50 in 10.0 mi South 10.4 mph 23.0 mph N/A   Clear
5:55 PM 91.4 °F - 43.3 °F 19% 29.49 in 10.0 mi South 12.7 mph 18.4 mph N/A   Clear
6:15 PM 91.0 °F - 45.0 °F 20% 29.47 in 10.0 mi South 11.5 mph 21.9 mph N/A   Clear
6:35 PM 89.4 °F - 46.4 °F 23% 29.46 in 10.0 mi SSW 10.4 mph 20.7 mph N/A   Clear
6:55 PM 89.6 °F - 47.3 °F 23% 29.46 in 10.0 mi SSW 12.7 mph 17.3 mph N/A   Clear
7:15 PM 88.9 °F - 48.0 °F 24% 29.45 in 10.0 mi SSW 13.8 mph 21.9 mph N/A   Clear
7:35 PM 87.6 °F - 48.7 °F 26% 29.46 in 10.0 mi SSW 10.4 mph 18.4 mph N/A   Clear
7:55 PM 86.0 °F - 49.1 °F 28% 29.46 in 10.0 mi SSW 11.5 mph 17.3 mph N/A   Clear
8:15 PM 84.0 °F - 50.0 °F 31% 29.46 in 10.0 mi SSW 8.1 mph - N/A   Clear
8:35 PM 81.3 °F - 50.4 °F 34% 29.47 in 10.0 mi South 5.8 mph - N/A   Clear
8:55 PM 79.0 °F - 51.4 °F 38% 29.48 in 10.0 mi Calm Calm - N/A   Clear
9:15 PM 75.9 °F - 52.2 °F 43% 29.49 in 10.0 mi SSW 3.5 mph - N/A   Clear
9:35 PM 69.4 °F - 53.2 °F 56% 29.50 in 10.0 mi Calm Calm - N/A   Clear
9:55 PM 65.5 °F - 54.0 °F 66% 29.51 in 10.0 mi SSW 3.5 mph - N/A   Clear
10:15 PM 63.9 °F - 53.4 °F 69% 29.51 in 10.0 mi Calm Calm - N/A   Clear
10:35 PM 61.7 °F - 52.3 °F 71% 29.52 in 10.0 mi Calm Calm - N/A   Clear
10:55 PM 65.1 °F - 48.4 °F 55% 29.53 in 10.0 mi WNW 13.8 mph 21.9 mph N/A   Clear
11:15 PM 77.9 °F - 34.7 °F 21% 29.54 in 10.0 mi WNW 11.5 mph 17.3 mph N/A   Clear
11:35 PM 77.4 °F - 32.4 °F 19% 29.56 in 10.0 mi WNW 9.2 mph - N/A   Clear
11:55 PM 77.2 °F - 31.1 °F 19% 29.58 in 10.0 mi WNW 15.0 mph 20.7 mph N/A   Clear